Weather History for Little Rock AFB, AR

Change the Weather History Date:

Monday, February 4, 2013

  Actual Average Record
Temperature  
Mean Temperature 44 °F -  
Max Temperature 51 °F 52 °F 32 °F (2014)
Min Temperature 38 °F 30 °F 26 °F (2014)
Degree Days  
Heating Degree Days 20    
Moisture  
Dew Point 38 °F    
Average Humidity 71    
Maximum Humidity 89    
Minimum Humidity 54    
Precipitation  
Precipitation 0.00 in - - ()
Sea Level Pressure  
Sea Level Pressure 29.98 in    
Wind  
Wind Speed 3 mph (South)    
Max Wind Speed 8 mph    
Max Gust Speed -    
Visibility 10 miles    
Events Rain    
Averages and records for this station are not official NWS values.
T = Trace of Precipitation, MM = Missing Value Source: NWS Daily Summary

Daily Weather History Graph

Daily Weather History Graph

Search for Another Location

Airport:

Trip Planner

Search our weather history database for the weather conditions in past years. The results will help you decide how hot, cold, wet, or windy it might be!

Date:

Astronomy

Feb. 04, 2013 Rise Set
Actual Time 7:04 AM CST 5:40 PM CST
Civil Twilight 6:38 AM CST 6:07 PM CST
Nautical Twilight 6:08 AM CST 6:37 PM CST
Astronomical Twilight 5:38 AM CST 7:07 PM CST
Moon 1:38 AM CST (2/4) 12:08 PM CST (2/4)
Length of Visible Light 11h 29m
Length of Day
10h 36m
Last Quarter, 37% of the Moon is Illuminated
Feb 4
Last Quarter
Feb 10
New
Feb 17
First Quarter
Feb 25
Full
Mar 4
Last Quarter

Hourly Weather History & Observations

Time (CST) Temp. Windchill Dew Point Humidity Pressure Visibility Wind Dir Wind Speed Gust Speed Precip Events Conditions
12:58 AM 38.5 °F - 31.5 °F 76% 30.08 in 10.0 mi ENE 2.3 mph - N/A   Clear
1:58 AM 38.7 °F - 32.4 °F 78% 30.05 in 10.0 mi SE 2.3 mph - N/A   Clear
2:58 AM 44.4 °F 42.9 °F 31.8 °F 61% 30.04 in 10.0 mi East 3.5 mph - N/A   Scattered Clouds
4:58 AM 43.0 °F - 33.1 °F 68% 30.02 in 10.0 mi Calm Calm - N/A   Mostly Cloudy
5:57 AM 41.0 °F - 33.8 °F 76% 30.00 in 10.0 mi North 2.3 mph - N/A Rain Light Rain
5:58 AM 41.0 °F - 34.2 °F 77% 30.01 in 10.0 mi North 2.3 mph - N/A Rain Light Rain
6:06 AM 41.0 °F - 33.8 °F 76% 30.00 in 10.0 mi NNE 1.2 mph - N/A   Mostly Cloudy
6:58 AM 42.1 °F - 34.3 °F 74% 30.03 in 10.0 mi WNW 2.3 mph - N/A   Partly Cloudy
7:58 AM 45.7 °F 44.4 °F 30.9 °F 56% 30.03 in 10.0 mi South 3.5 mph - N/A   Scattered Clouds
8:05 AM 46.4 °F 45.2 °F 32.0 °F 57% 30.01 in 10.0 mi South 3.5 mph - N/A Rain Light Rain
8:25 AM 46.4 °F 43.5 °F 32.0 °F 57% 30.00 in 10.0 mi South 5.8 mph - N/A   Mostly Cloudy
8:58 AM 46.0 °F - 32.2 °F 58% 30.04 in 10.0 mi South 2.3 mph - N/A   Overcast
9:22 AM 46.4 °F - 32.0 °F 57% 30.02 in 10.0 mi ESE 1.2 mph - N/A Rain Light Rain
9:40 AM 46.4 °F - 32.0 °F 57% 30.02 in 10.0 mi SSE 2.3 mph - N/A   Partly Cloudy
9:58 AM 47.7 °F - 33.8 °F 59% 30.04 in 10.0 mi SSW 3.5 mph - N/A   Partly Cloudy
10:17 AM 48.2 °F - 32.0 °F 54% 30.02 in 10.0 mi SSW 5.8 mph - N/A Rain Light Rain
10:58 AM 48.6 °F - 33.6 °F 56% 30.03 in 10.0 mi South 3.5 mph - N/A Rain Light Rain
11:58 AM 48.4 °F - 36.9 °F 64% 30.01 in 10.0 mi South 5.8 mph - N/A Rain Light Rain
12:58 PM 48.2 °F - 39.9 °F 73% 29.96 in 10.0 mi South 5.8 mph - N/A Rain Light Rain
1:27 PM 50.0 °F - 41.0 °F 71% 29.93 in 10.0 mi South 5.8 mph - N/A   Mostly Cloudy
1:38 PM 50.0 °F - 41.0 °F 71% 29.93 in 10.0 mi South 6.9 mph - N/A   Light Drizzle
1:58 PM 50.2 °F - 41.4 °F 72% 29.94 in 10.0 mi Variable 6.9 mph - N/A Rain Light Rain
1:59 PM 50.0 °F - 41.0 °F 71% 29.92 in 10.0 mi Variable 6.9 mph - N/A   Mostly Cloudy
2:09 PM 50.0 °F - 41.0 °F 71% 29.91 in 10.0 mi SSW 8.1 mph - N/A   Overcast
2:58 PM 51.8 °F - 40.3 °F 65% 29.90 in 10.0 mi South 5.8 mph - N/A   Overcast
3:58 PM 51.6 °F - 41.7 °F 69% 29.91 in 10.0 mi South 5.8 mph - N/A   Overcast
4:58 PM 51.3 °F - 42.8 °F 73% 29.92 in 10.0 mi SSW 5.8 mph - N/A   Overcast
5:58 PM 50.5 °F - 42.8 °F 75% 29.92 in 10.0 mi SSW 8.1 mph - N/A   Overcast
6:58 PM 49.8 °F - 43.5 °F 79% 29.94 in 10.0 mi SSW 4.6 mph - N/A   Overcast
7:33 PM 50.0 °F - 44.6 °F 82% 29.93 in 10.0 mi SSW 3.5 mph - N/A   Overcast
7:58 PM 49.3 °F - 44.1 °F 82% 29.95 in 10.0 mi Variable 2.3 mph - N/A   Overcast
8:28 PM 50.0 °F - 44.6 °F 82% 29.94 in 10.0 mi South 4.6 mph - N/A   Overcast
8:38 PM 50.0 °F - 44.6 °F 82% 29.94 in 10.0 mi South 4.6 mph - N/A   Overcast
8:58 PM 49.1 °F - 44.6 °F 84% 29.95 in 10.0 mi SSW 2.3 mph - N/A   Overcast
9:58 PM 48.4 °F - 44.1 °F 85% 29.96 in 10.0 mi Calm Calm - N/A   Mostly Cloudy
10:58 PM 48.2 °F - 44.4 °F 87% 29.95 in 10.0 mi SSW 3.5 mph - N/A   Overcast
11:58 PM 47.5 °F - 44.4 °F 89% 29.96 in 10.0 mi WNW 1.2 mph - N/A   Overcast